Voltar ao catálogo

ICEYE-X31

AtivoCiênciaSSO
NORAD 58288·PAYLOAD·🇫🇮 Finland

Lançado Nov 11, 2023 de Vandenberg Space Force Base

Loading…

Próximas Passagens (próximas 24 horas)

TLE

AtualizadoSource: Space-Track

Época: Sep 14, 2026, 12:54 UTC

1 58288U 23174AJ  26257.53778194  .00013681  00000-0  38068-3 0  9991
2 58288  97.3710 333.3893 0002322  36.1742 323.9659 15.36943585158464

Acompanhe ICEYE-X31 em tempo real com AllMySat

Download on the App Store